When you browse on this site, cookies collect data to enhance your experience and personalize the content and advertising you see.
Visit our Privacy Policy to learn more. By continuing to use the site, you agree to this use of cookies and data.
  • In Romania
  • List of Countries
  • For 7 days
  • Water Temperature
  • Weather Map
  • Weather Widgets
  • user-avatar
    Login

    Hourly Weather Aguilas

    Today, 26 February, Wednesday

    Time Temperature Precipitation Wind Pressure Humidity
    00:00 +15°C° 0 mm 4 mps 763 mmHg 53%
    01:00 +15°C° 0 mm 4 mps 763 mmHg 56%
    02:00 +14°C° 0 mm 4 mps 763 mmHg 58%
    03:00 +14°C° 0 mm 4 mps 763 mmHg 61%
    04:00 +13°C° 0 mm 4 mps 763 mmHg 64%
    05:00 +13°C° 0 mm 3 mps 763 mmHg 68%
    06:00 +13°C° 0 mm 2 mps 763 mmHg 69%
    07:00 +15°C° 0 mm 2 mps 763 mmHg 64%
    08:00 +16°C° 0 mm 2 mps 764 mmHg 59%
    09:00 +18°C° 0 mm 2 mps 764 mmHg 53%
    10:00 +19°C° 0 mm 2 mps 764 mmHg 48%
    11:00 +20°C° 0 mm 2 mps 764 mmHg 43%
    12:00 +21°C° 0 mm 2 mps 764 mmHg 38%
    13:00 +21°C° 0 mm 2 mps 764 mmHg 41%
    14:00 +21°C° 0 mm 3 mps 763 mmHg 43%
    15:00 +21°C° 0 mm 3 mps 763 mmHg 46%
    16:00 +19°C° 0 mm 2 mps 763 mmHg 52%
    17:00 +18°C° 0 mm 2 mps 763 mmHg 57%
    18:00 +18°C° 0 mm 1 mps 763 mmHg 63%
    19:00 +16°C° 0 mm 1 mps 764 mmHg 66%
    20:00 +15°C° 0 mm 1 mps 764 mmHg 68%
    21:00 +15°C° 0 mm 1 mps 765 mmHg 71%
    22:00 +13°C° 0 mm 0 mps 765 mmHg 70%
    23:00 +13°C° 0 mm 0 mps 765 mmHg 70%

    Tomorrow, 27 February, Thursday

    Time Temperature Precipitation Wind Pressure Humidity
    00:00 +13°C° 0 mm 0 mps 765 mmHg 70%
    01:00 +12°C° 0 mm 0 mps 765 mmHg 70%
    02:00 +12°C° 0 mm 0 mps 764 mmHg 69%
    03:00 +12°C° 0 mm 0 mps 764 mmHg 69%
    04:00 +12°C° 0 mm 1 mps 764 mmHg 69%
    05:00 +12°C° 0 mm 1 mps 765 mmHg 69%
    06:00 +12°C° 0 mm 1 mps 765 mmHg 69%
    07:00 +14°C° 0 mm 1 mps 765 mmHg 62%
    08:00 +15°C° 0 mm 1 mps 765 mmHg 55%
    09:00 +18°C° 0 mm 1 mps 766 mmHg 48%
    10:00 +19°C° 0 mm 1 mps 766 mmHg 44%
    11:00 +20°C° 0 mm 2 mps 766 mmHg 40%
    12:00 +21°C° 0 mm 3 mps 766 mmHg 37%
    13:00 +21°C° 0 mm 3 mps 765 mmHg 38%
    14:00 +21°C° 0 mm 3 mps 765 mmHg 39%
    15:00 +21°C° 0 mm 4 mps 764 mmHg 40%
    16:00 +19°C° 0 mm 3 mps 765 mmHg 47%
    17:00 +18°C° 0 mm 3 mps 765 mmHg 53%
    18:00 +16°C° 0 mm 2 mps 765 mmHg 60%
    19:00 +16°C° 0 mm 2 mps 765 mmHg 61%
    20:00 +15°C° 0 mm 2 mps 766 mmHg 62%
    21:00 +15°C° 0 mm 1 mps 766 mmHg 62%
    22:00 +15°C° 0 mm 1 mps 766 mmHg 60%
    23:00 +14°C° 0 mm 1 mps 766 mmHg 58%

    Day after tomorrow, 28 February, Friday

    Time Temperature Precipitation Wind Pressure Humidity
    00:00 +14°C° 0 mm 1 mps 766 mmHg 56%
    01:00 +14°C° 0 mm 1 mps 766 mmHg 56%
    02:00 +14°C° 0 mm 1 mps 766 mmHg 55%
    03:00 +13°C° 0 mm 1 mps 765 mmHg 55%
    04:00 +13°C° 0 mm 1 mps 765 mmHg 56%
    05:00 +13°C° 0 mm 1 mps 765 mmHg 57%
    06:00 +12°C° 0 mm 1 mps 765 mmHg 58%
    07:00 +15°C° 0 mm 1 mps 765 mmHg 50%
    08:00 +16°C° 0 mm 0 mps 765 mmHg 42%
    09:00 +19°C° 0 mm 0 mps 765 mmHg 34%
    10:00 +22°C° 0 mm 1 mps 765 mmHg 33%
    11:00 +23°C° 0 mm 2 mps 765 mmHg 32%
    12:00 +24°C° 0 mm 3 mps 764 mmHg 31%
    13:00 +24°C° 0 mm 3 mps 764 mmHg 31%
    14:00 +24°C° 0 mm 3 mps 763 mmHg 31%
    15:00 +24°C° 0 mm 3 mps 762 mmHg 31%
    16:00 +21°C° 0 mm 3 mps 762 mmHg 38%
    17:00 +19°C° 0 mm 2 mps 762 mmHg 44%
    18:00 +18°C° 0 mm 1 mps 762 mmHg 51%
    19:00 +16°C° 0 mm 1 mps 762 mmHg 51%
    20:00 +16°C° 0 mm 1 mps 762 mmHg 52%
    21:00 +15°C° 0 mm 1 mps 762 mmHg 53%
    22:00 +15°C° 0 mm 1 mps 762 mmHg 54%
    23:00 +15°C° 0 mm 2 mps 762 mmHg 54%

    29 February, Saturday

    Time Temperature Precipitation Wind Pressure Humidity
    00:00 +15°C° 0 mm 2 mps 762 mmHg 55%
    01:00 +14°C° 0 mm 2 mps 761 mmHg 55%
    02:00 +14°C° 0 mm 2 mps 761 mmHg 56%
    03:00 +14°C° 0 mm 2 mps 760 mmHg 57%
    04:00 +14°C° 0 mm 2 mps 760 mmHg 54%
    05:00 +14°C° 0 mm 2 mps 760 mmHg 52%
    06:00 +14°C° 0 mm 2 mps 760 mmHg 49%
    07:00 +16°C° 0 mm 2 mps 760 mmHg 44%
    08:00 +18°C° 0 mm 2 mps 760 mmHg 40%
    09:00 +20°C° 0 mm 2 mps 760 mmHg 35%
    10:00 +22°C° 0 mm 3 mps 761 mmHg 31%
    11:00 +23°C° 0 mm 4 mps 761 mmHg 27%
    12:00 +26°C° 0 mm 5 mps 761 mmHg 22%
    13:00 +26°C° 0 mm 5 mps 760 mmHg 24%
    14:00 +27°C° 0 mm 5 mps 760 mmHg 25%
    15:00 +27°C° 0 mm 6 mps 760 mmHg 27%
    16:00 +25°C° 0 mm 5 mps 760 mmHg 32%
    17:00 +22°C° 0 mm 4 mps 760 mmHg 37%
    18:00 +20°C° 0 mm 4 mps 760 mmHg 42%
    19:00 +20°C° 0 mm 4 mps 761 mmHg 46%
    20:00 +19°C° 0 mm 4 mps 761 mmHg 49%
    21:00 +19°C° 0 mm 5 mps 761 mmHg 53%
    22:00 +19°C° 0 mm 4 mps 761 mmHg 55%
    23:00 +18°C° 0 mm 4 mps 761 mmHg 57%

    1 March, Sunday

    Time Temperature Precipitation Wind Pressure Humidity
    00:00 +18°C° 0 mm 3 mps 761 mmHg 59%
    01:00 +18°C° 0 mm 3 mps 761 mmHg 60%
    02:00 +18°C° 0 mm 3 mps 761 mmHg 62%
    03:00 +17°C° 0 mm 3 mps 761 mmHg 63%
    04:00 +17°C° 0 mm 3 mps 761 mmHg 64%
    05:00 +17°C° 0 mm 3 mps 761 mmHg 65%
    06:00 +16°C° 0 mm 3 mps 761 mmHg 66%
    07:00 +17°C° 0 mm 3 mps 761 mmHg 61%
    08:00 +18°C° 0 mm 3 mps 762 mmHg 57%
    09:00 +19°C° 0 mm 3 mps 762 mmHg 53%
    10:00 +20°C° 0 mm 3 mps 762 mmHg 48%
    11:00 +22°C° 0 mm 4 mps 762 mmHg 43%
    12:00 +23°C° 0 mm 4 mps 762 mmHg 38%
    13:00 +23°C° 0 mm 4 mps 761 mmHg 40%
    14:00 +23°C° 0 mm 5 mps 761 mmHg 42%
    15:00 +23°C° 0 mm 5 mps 760 mmHg 44%
    16:00 +21°C° 0 mm 4 mps 760 mmHg 49%
    17:00 +20°C° 0 mm 3 mps 760 mmHg 54%
    18:00 +19°C° 0 mm 2 mps 760 mmHg 59%
    19:00 +19°C° 0 mm 2 mps 761 mmHg 58%
    20:00 +19°C° 0 mm 2 mps 761 mmHg 58%
    21:00 +19°C° 0 mm 2 mps 761 mmHg 57%
    22:00 +18°C° 0 mm 2 mps 761 mmHg 58%
    23:00 +18°C° 0 mm 2 mps 760 mmHg 60%

    2 March, Monday

    Time Temperature Precipitation Wind Pressure Humidity
    00:00 +18°C° 0 mm 3 mps 760 mmHg 61%
    01:00 +17°C° 0 mm 3 mps 760 mmHg 60%
    02:00 +17°C° 0 mm 3 mps 759 mmHg 60%
    03:00 +16°C° 0 mm 3 mps 759 mmHg 59%
    04:00 +16°C° 0 mm 3 mps 759 mmHg 58%
    05:00 +17°C° 0 mm 3 mps 758 mmHg 56%
    06:00 +17°C° 0 mm 3 mps 758 mmHg 54%
    07:00 +18°C° 0 mm 4 mps 758 mmHg 53%
    08:00 +19°C° 0 mm 5 mps 758 mmHg 51%
    09:00 +20°C° 0 mm 6 mps 759 mmHg 50%
    10:00 +21°C° 0 mm 7 mps 758 mmHg 48%
    11:00 +22°C° 0 mm 8 mps 758 mmHg 45%
    12:00 +23°C° 0 mm 9 mps 758 mmHg 42%
    13:00 +23°C° 0 mm 10 mps 757 mmHg 41%
    14:00 +23°C° 0 mm 12 mps 757 mmHg 41%
    15:00 +24°C° 0 mm 13 mps 756 mmHg 40%
    16:00 +22°C° 0 mm 12 mps 757 mmHg 42%
    17:00 +21°C° 0 mm 11 mps 757 mmHg 45%
    18:00 +19°C° 0 mm 10 mps 758 mmHg 47%
    19:00 +18°C° 0 mm 9 mps 759 mmHg 47%
    20:00 +17°C° 0 mm 8 mps 760 mmHg 47%
    21:00 +16°C° 0 mm 7 mps 761 mmHg 47%
    22:00 +15°C° 0 mm 6 mps 762 mmHg 50%
    23:00 +14°C° 0 mm 6 mps 762 mmHg 53%
    Show more